Miscellaneous Local Product
Issued by NWS North Platte, NE

Home | Current Version | Previous Version | Text Only | Print | Product List | Glossary On
Versions: 1 2 3 4 5 6 7 8 9 10 11 12 13 14 15 16 17 18 19 20 21 22 23 24 25 26 27 28 29 30 31 32 33 34 35 36 37 38 39 40 41 42 43 44 45 46 47 48 49 50
000
AXUS43 KLBF 280810
MISLBF


WESTERN AND NORTH CENTRAL NEBRASKA HOURLY WEATHER ROUNDUP
NATIONAL WEATHER SERVICE NORTH PLATTE NE
300 AM CDT FRI AUG 28 2015

NOTE: "FAIR" INDICATES FEW OR NO CLOUDS BELOW 12,000 FEET WITH NO
SIGNIFICANT WEATHER AND/OR OBSTRUCTIONS TO VISIBILITY.

NOTE: STATIONS NOT REPORTING VARIABLES SUCH AS SKY/WEATHER OR
PRESSURE ARE PROVIDED BY THE NEBRASKA DEPARTMENT OF
ROADS...RAWS...AND APRS NETWORKS...AND ARE NOT UNDER
NATIONAL WEATHER SERVICE QUALITY CONTROL.

...OBSERVATIONS IN AND NEAR THE EASTERN PANHANDLE OF NEBRASKA...

CITY           SKY/WX    TMP DP  RH WIND       PRES   REMARKS
PINE RIDGE     CLEAR     53  50  89 CALM      30.01F
CHADRON        CLEAR     52  50  93 SW5       30.01F
ALLIANCE       PTCLDY    51  49  92 W7        30.04S
SIDNEY         PTCLDY    59  54  83 NW10      30.08F
CRESCENT LAKE    N/A     57  55  95 NW7         N/A
BIG SPRINGS      N/A     58  55  91 CALM        N/A
$$

...OBSERVATIONS IN NORTH CENTRAL NEBRASKA...

CITY           SKY/WX    TMP DP  RH WIND       PRES   REMARKS
THEDFORD       CLOUDY    67  65  94 NW13      29.95S
AINSWORTH      CLOUDY    69  68  97 CALM      29.91S
O`NEILL        CLOUDY    67  66  95 E8        29.87F
ORD            CLOUDY    65  64  97 NW8       29.83F FOG
BROKEN BOW     CLOUDY    69  67  93 N3        29.87F
SPRINGVIEW       N/A     67  65  93 CALM        N/A
SARGENT          N/A     64  63  98 CALM        N/A
CHAMBERS         N/A     66  64  95 N3          N/A
EWING            N/A     67  64  89 E3          N/A
$$

...OBSERVATIONS IN SOUTHWEST NEBRASKA AND FAR NORTHEAST COLORADO...

CITY           SKY/WX    TMP DP  RH WIND       PRES   REMARKS
WRAY           FAIR      60  60 100 W5        30.05S
HOLYOKE        FAIR      61  55  82 NW5       30.05S
IMPERIAL       CLEAR     64  58  80 NW9       29.99F
OGALLALA       CLEAR     63  60  91 N9        30.00R
NORTH PLATTE   CLEAR     65  63  93 W8        29.93S
MCCOOK         CLEAR     68  63  84 W10       29.93S
LEXINGTON      PTCLDY    69  67  94 W7        29.88F
PAXTON           N/A     66  62  88 CALM        N/A
BRADY            N/A     66  64  93 CALM        N/A
CALLAWAY         N/A     69  67  94 NW8         N/A
$$

...OBSERVATIONS IN CENTRAL LINCOLN COUNTY AREA...

CITY           SKY/WX    TMP DP  RH WIND       PRES   REMARKS
N.P. AIRPORT   CLEAR     65  63  93 W8        29.93S
N.P. DOWNTOWN    N/A     67  65  92 CALM        N/A
N.P. SOUTHEAST   N/A     67  64  90 CALM        N/A
$$

...SOME OBSERVATIONS FROM AROUND THE REGION...

CITY           SKY/WX    TMP DP  RH WIND       PRES   REMARKS
DENVER         CLOUDY    65  55  70 W8        30.18S
LARAMIE        PTCLDY    52  47  83 NW9       30.33S
CHEYENNE       CLOUDY    58  54  86 CALM      30.25S
SCOTTSBLUFF    PTCLDY    57  54  89 W7        30.07R
RAPID CITY     CLEAR     58  56  93 CALM      29.98F
PIERRE         CLOUDY    68  67  96 N6        29.91S FOG
WINNER         CLOUDY    69  66  90 E14       29.88F
SIOUX FALLS    CLOUDY    66  64  93 SE12      29.92F
OMAHA          TSTM      68  67  96 SE10      29.93R FOG
GRAND ISLAND   PTCLDY    71  66  84 SW8       29.83F
KANSAS CITY    CLOUDY    70  64  81 S12       29.97S
WICHITA        CLOUDY    74  70  87 S9        29.96F
HAYS           MOCLDY    79  57  47 SW21G28   29.88S
LIBERAL        CLOUDY    72  63  73 W7        30.00S
GOODLAND       CLEAR     64  59  83 NW10      30.03S
$$



USA.gov is the U.S. government's official web portal to all federal, state and local government web resources and services.